Winchester, VA

6:15 AM EST on November 21, 2017 (GMT -0500)
Winchester Regional

Weather History for KOKV - October, 2013

Change the Weather History Date:

Saturday, October 12, 2013

  Actual Average Record
Temperature  
Mean Temperature 58 °F -  
Max Temperature 60 °F 65 °F 82 °F (2010)
Min Temperature 57 °F 45 °F 31 °F (1993)
Degree Days  
Heating Degree Days 6    
Growing Degree Days 8 (Base 50)    
Moisture  
Dew Point 59 °F    
Average Humidity 100    
Maximum Humidity 100    
Minimum Humidity 100    
Precipitation  
Precipitation 0.44 in - - ()
Sea Level Pressure  
Sea Level Pressure 30.10 in    
Wind  
Wind Speed 3 mph (North)    
Max Wind Speed 6 mph    
Max Gust Speed -    
Visibility 6 miles    
Events Rain    
Averages and records for this station are not official NWS values.
T = Trace of Precipitation, MM = Missing Value Source: NWS Daily Summary

Daily Weather History Graph

Daily Weather History Graph

Search for Another Location

Airport or City:

Trip Planner

Search our weather history database for the weather conditions in past years. The results will help you decide how hot, cold, wet, or windy it might be!

Date:

Astronomy

Oct. 12, 2013 Rise Set
Actual Time 7:19 AM EDT 6:37 PM EDT
Civil Twilight 6:52 AM EDT 7:04 PM EDT
Nautical Twilight 6:21 AM EDT 7:35 PM EDT
Astronomical Twilight 5:50 AM EDT 8:06 PM EDT
Moon 2:43 PM EDT (10/12) 12:23 AM EDT (10/12)
Length of Visible Light 12h 12m
Length of Day
11h 18m
First Quarter, 58% of the Moon is Illuminated
Oct 12
First Quarter
Oct 18
Full
Oct 26
Last Quarter
Nov 3
New
Nov 10
First Quarter

Hourly Weather History & Observations

Time (EDT) Temp. Dew Point Humidity Pressure Visibility Wind Dir Wind Speed Gust Speed Precip Events Conditions
12:15 AM 59.0 °F 59.0 °F 100% 30.03 in 10.0 mi North 3.5 mph - 0.01 in Rain Light Rain
12:35 AM 59.0 °F 59.0 °F 100% 30.03 in 5.0 mi North 4.6 mph - 0.05 in Rain Rain
12:55 AM 59.0 °F 59.0 °F 100% 30.03 in 10.0 mi Calm Calm - 0.07 in Rain Light Rain
1:15 AM 59.0 °F 59.0 °F 100% 30.03 in 7.0 mi North 5.8 mph - 0.01 in Rain Light Rain
1:35 AM 59.0 °F 59.0 °F 100% 30.03 in 2.5 mi North 3.5 mph - 0.01 in   Heavy Drizzle
1:55 AM 59.0 °F 59.0 °F 100% 30.03 in 3.0 mi North 4.6 mph - 0.02 in   Heavy Drizzle
2:15 AM 59.0 °F 59.0 °F 100% 30.03 in 3.0 mi North 4.6 mph - N/A   Drizzle
2:35 AM 59.0 °F 59.0 °F 100% 30.03 in 3.0 mi North 4.6 mph - N/A   Drizzle
2:55 AM 59.0 °F 59.0 °F 100% 30.03 in 3.0 mi North 3.5 mph - 0.01 in   Heavy Drizzle
3:15 AM 59.0 °F 59.0 °F 100% 30.03 in 4.0 mi North 4.6 mph - N/A   Drizzle
3:35 AM 59.0 °F 59.0 °F 100% 30.03 in 5.0 mi North 5.8 mph - 0.04 in Rain Light Rain
3:55 AM 59.0 °F 59.0 °F 100% 30.03 in 4.0 mi North 4.6 mph - 0.04 in   Drizzle
4:15 AM 59.0 °F 59.0 °F 100% 30.03 in 3.0 mi North 3.5 mph - 0.04 in Rain Rain
4:35 AM 59.0 °F 59.0 °F 100% 30.04 in 4.0 mi Calm Calm - 0.10 in Rain Rain
4:55 AM 59.0 °F 59.0 °F 100% 30.04 in 4.0 mi North 3.5 mph - 0.13 in Rain Heavy Rain
5:15 AM 59.0 °F 59.0 °F 100% 30.05 in 7.0 mi Calm Calm - 0.03 in Rain Rain
5:35 AM 59.0 °F 59.0 °F 100% 30.05 in 5.0 mi North 3.5 mph - 0.04 in Rain Rain
5:55 AM 59.0 °F 59.0 °F 100% 30.05 in 5.0 mi North 3.5 mph - 0.04 in Rain Rain
6:15 AM 59.0 °F 59.0 °F 100% 30.06 in 3.0 mi Calm Calm - N/A   Overcast
6:35 AM 59.0 °F 59.0 °F 100% 30.06 in 2.5 mi North 3.5 mph - N/A Rain Rain
6:55 AM 59.0 °F 59.0 °F 100% 30.07 in 3.0 mi North 3.5 mph - 0.01 in   Drizzle
7:15 AM 59.0 °F 59.0 °F 100% 30.07 in 4.0 mi Calm Calm - N/A   Light Drizzle
7:35 AM 59.0 °F 59.0 °F 100% 30.07 in 1.8 mi Calm Calm - N/A   Heavy Drizzle
7:55 AM 59.0 °F 59.0 °F 100% 30.08 in 2.0 mi North 4.6 mph - 0.01 in   Drizzle
8:15 AM 59.0 °F 59.0 °F 100% 30.08 in 2.0 mi North 4.6 mph - N/A   Heavy Drizzle
8:35 AM 59.0 °F 59.0 °F 100% 30.09 in 7.0 mi North 3.5 mph - N/A   Overcast
8:55 AM 59.0 °F 59.0 °F 100% 30.10 in 7.0 mi North 3.5 mph - N/A   Overcast
9:15 AM 59.0 °F 59.0 °F 100% 30.11 in 10.0 mi NNW 3.5 mph - N/A   Overcast
9:35 AM 59.0 °F 59.0 °F 100% 30.11 in 10.0 mi NNE 3.5 mph - N/A   Overcast
9:55 AM 59.0 °F 59.0 °F 100% 30.11 in 10.0 mi North 3.5 mph - N/A   Overcast
10:15 AM 59.0 °F 59.0 °F 100% 30.12 in 10.0 mi NNE 3.5 mph - N/A   Overcast
10:35 AM 60.8 °F 60.8 °F 100% 30.12 in 10.0 mi Calm Calm - N/A   Overcast
10:55 AM 60.8 °F 60.8 °F 100% 30.12 in 4.0 mi North 4.6 mph - N/A Rain Rain
11:15 AM 60.8 °F 60.8 °F 100% 30.13 in 2.5 mi NNE 4.6 mph - N/A   Drizzle
11:35 AM 60.8 °F 60.8 °F 100% 30.11 in 2.0 mi North 3.5 mph - 0.02 in Rain Heavy Rain
11:55 AM 59.0 °F 59.0 °F 100% 30.10 in 2.0 mi North 4.6 mph - 0.03 in Rain Heavy Rain
12:15 PM 60.8 °F 60.8 °F 100% 30.13 in 3.0 mi North 4.6 mph - N/A   Heavy Drizzle
12:35 PM 59.0 °F 59.0 °F 100% 30.12 in 4.0 mi NNE 3.5 mph - N/A   Overcast
12:55 PM 59.0 °F 59.0 °F 100% 30.12 in 1.8 mi North 5.8 mph - N/A   Drizzle
1:15 PM 59.0 °F 59.0 °F 100% 30.12 in 2.5 mi North 4.6 mph - N/A Rain Light Rain
1:35 PM 59.0 °F 59.0 °F 100% 30.12 in 1.8 mi North 4.6 mph - N/A   Heavy Drizzle
1:55 PM 59.0 °F 59.0 °F 100% 30.12 in 2.5 mi NNE 3.5 mph - N/A Rain Heavy Rain
2:15 PM 59.0 °F 59.0 °F 100% 30.11 in 1.8 mi North 4.6 mph - N/A   Heavy Drizzle
2:35 PM 60.8 °F 60.8 °F 100% 30.11 in 1.8 mi NNE 5.8 mph - N/A   Drizzle
2:55 PM 60.8 °F 60.8 °F 100% 30.11 in 4.0 mi NNE 5.8 mph - N/A   Light Drizzle
3:15 PM 60.8 °F 60.8 °F 100% 30.11 in 2.0 mi North 3.5 mph - N/A   Overcast
3:35 PM 59.0 °F 59.0 °F 100% 30.12 in 7.0 mi North 3.5 mph - N/A   Overcast
3:55 PM 60.8 °F 60.8 °F 100% 30.12 in 5.0 mi Calm Calm - N/A   Overcast
4:15 PM 60.8 °F 60.8 °F 100% 30.12 in 5.0 mi Calm Calm - N/A   Mist
4:35 PM 60.8 °F 60.8 °F 100% 30.12 in 10.0 mi Calm Calm - N/A   Unknown
4:55 PM 60.8 °F 60.8 °F 100% 30.13 in 7.0 mi West 3.5 mph - N/A   Unknown
5:15 PM 60.8 °F 60.8 °F 100% 30.13 in 10.0 mi Calm Calm - N/A   Unknown
5:35 PM 60.8 °F 60.8 °F 100% 30.14 in 7.0 mi Calm Calm - N/A   Unknown
5:55 PM 60.8 °F 60.8 °F 100% 30.15 in 10.0 mi Calm Calm - N/A   Unknown
6:15 PM 60.8 °F 60.8 °F 100% 30.15 in 10.0 mi Calm Calm - N/A   Unknown
6:35 PM 60.8 °F 60.8 °F 100% 30.14 in 10.0 mi Calm Calm - N/A   Unknown
6:55 PM 60.8 °F 60.8 °F 100% 30.15 in 10.0 mi East 3.5 mph - N/A   Unknown
7:15 PM 59.0 °F 59.0 °F 100% - 4.0 mi ENE 5.8 mph - N/A   Drizzle
7:35 PM 59.0 °F 59.0 °F 100% - 5.0 mi NE 4.6 mph - 0.01 in   Heavy Drizzle
7:55 PM 59.0 °F 59.0 °F 100% 30.15 in 5.0 mi Calm Calm - 0.03 in   Heavy Drizzle
8:15 PM 59.0 °F 59.0 °F 100% 30.15 in 5.0 mi NNW 3.5 mph - 0.03 in Rain Light Rain
8:35 PM 59.0 °F 59.0 °F 100% 30.17 in 5.0 mi NW 3.5 mph - 0.04 in   Drizzle
8:55 PM 59.0 °F 59.0 °F 100% 30.17 in 10.0 mi North 3.5 mph - 0.04 in   Unknown
9:15 PM 59.0 °F 59.0 °F 100% 30.17 in 10.0 mi Calm Calm - N/A   Unknown
9:35 PM 59.0 °F 59.0 °F 100% 30.18 in 7.0 mi Calm Calm - N/A   Unknown
9:55 PM 57.2 °F 57.2 °F 100% 30.18 in 10.0 mi Calm Calm - N/A   Unknown
10:15 PM 57.2 °F 57.2 °F 100% 30.19 in 10.0 mi Calm Calm - N/A   Unknown
10:35 PM 57.2 °F 57.2 °F 100% 30.19 in 4.0 mi Calm Calm - N/A   Drizzle
10:55 PM 57.2 °F 57.2 °F 100% 30.19 in 4.0 mi NW 4.6 mph - 0.01 in Rain Heavy Rain
11:15 PM 57.2 °F 57.2 °F 100% 30.19 in 7.0 mi Calm Calm - N/A   Overcast
11:35 PM 57.2 °F 57.2 °F 100% 30.19 in 7.0 mi West 3.5 mph - N/A Rain Light Rain
11:55 PM 57.2 °F 57.2 °F 100% 30.19 in 10.0 mi WNW 4.6 mph - N/A   Overcast